Regional Weather Roundup
Issued by NWS

Home | Current Version | Previous Version | Text Only | Print | Product List | Glossary On
Versions: 1 2 3 4 5 6 7 8 9 10 11 12 13 14 15 16 17 18 19 20 21 22 23 24 25 26 27 28 29 30 31 32 33 34 35 36 37 38 39 40 41 42 43 44 45 46 47 48 49 50
214
ASUS43 KDTX 041510
RWRMI
MICHIGAN HOURLY REGIONAL WEATHER ROUNDUP
NATIONAL WEATHER SERVICE DETROIT/PONTIAC MI
1100 AM EDT WED MAY 04 2016

NOTE: "FAIR" INDICATES FEW OR NO CLOUDS BELOW 12,000 FEET WITH NO
SIGNIFICANT WEATHER AND/OR OBSTRUCTION TO VISIBILITY.

MIZ047>049-052>055-059>063-066>070-074>076-081>083-041600-
SOUTHEAST LOWER MICHIGAN

CITY           SKY/WX    TMP DP  RH WIND       PRES   REMARKS
ADRIAN         CLOUDY    57  47  69 SW13      29.58F
ALMA           LGT RAIN  47  45  95 NW15      29.57F
ANN ARBOR      CLOUDY    56  47  71 S8        29.58F
BAD AXE        CLOUDY    55  46  71 S9        29.61S
CARO           CLOUDY    57  45  64 E3        29.58S
DETROIT CITY   CLOUDY    55  47  74 S9        29.60F
DETROIT        PTSUNNY   58  46  64 SE7       29.60F
FLINT          CLOUDY    58  45  62 SW9       29.57S
GROSSE ILE     CLOUDY    54  48  82 SE10      29.60S
HILLSDALE      RAIN      51  46  82 S6        29.56F
HOWELL         CLOUDY    59  46  62 S8        29.56F

CITY           SKY/WX    TMP DP  RH WIND       PRES   REMARKS
JACKSON        LGT RAIN  54  45  71 S10       29.55F
LAMBERTVILLE   PTSUNNY   59  48  66 S5        29.60S
LANSING        LGT RAIN  53  48  83 SW6       29.56F
LAPEER         FAIR      59  45  61 S12       29.58F
MASON          CLOUDY    53  45  74 S5        29.56S
MONROE         CLOUDY    57  49  76 S14       29.59F
MT. CLEMENS    CLOUDY    51  51  98 SE8       29.60F
PONTIAC        PTSUNNY   56  45  66 S7        29.58S
PORT HOPE        N/A     56  44  64 S7        29.60R
PORT HURON     CLOUDY    55  46  71 SE8       29.62S
TRI CITIES     LGT RAIN  56  45  66 CALM      29.58S
MIDLAND        LGT RAIN  49  44  83 N6        29.57S
TROY           CLOUDY    58  47  66 S9        29.61S
SAGINAW HB     CLOUDY    55  45  67 SE6       29.57S
$$
MIZ043>046-050>051-056>058-064>065-071>073-077>080-041600-
SOUTHWEST LOWER MICHIGAN

CITY           SKY/WX    TMP DP  RH WIND       PRES   REMARKS
BATTLE CREEK   RAIN      46  43  89 NW18G26   29.57R FOG
BENTON HARBOR  CLOUDY    43  39  86 N10G24    29.68R
BIG RAPIDS     LGT RAIN  44  40  87 N14       29.62R
COLDWATER      LGT RAIN  47  45  92 NW13G23   29.57R
FREMONT        CLOUDY    42  42 100 N15G21    29.64R
HOLLAND        LGT RAIN N/A N/A N/A NW9       29.65R
GRAND RAPIDS   RAIN      46  43  89 N13       29.60S FOG
IONIA          LGT RAIN  45  44  95 NW9       29.57S
KALAMAZOO      LGT RAIN  47  41  80 NW17      29.60R
LUDINGTON      CLOUDY    40  38  89 N22G36    29.70R WCI  31
MARSHALL       RAIN      49  47  92 S7        29.54S
MOUNT PLEASANT RAIN      46  44  93 N7        29.59R
MUSKEGON       CLOUDY    45  39  79 NW16      29.66R
SOUTH HAVEN    CLOUDY    42  41  94 N20G30    29.66R
$$
MIZ016>042-041600-
NORTHERN LOWER MICHIGAN

CITY           SKY/WX    TMP DP  RH WIND       PRES   REMARKS
ALPENA         LGT RAIN  47  45  93 NE10      29.65R
BEAVER ISLAND  CLOUDY    43  37  80 N12G22    29.73S
BELLAIRE       MIX PCPN  42  40  92 N9G16     29.69S
CADILLAC       LGT RAIN  41  39  94 N12G21    29.64R
CHARLEVOIX     LGT RAIN  40  39  99 N9G17     29.74R WCI  33
FRANKFORT      CLOUDY    40  37  89 N13G20    29.73R WCI  33
GAYLORD        LGT RAIN  43  41  93 N8        29.65S
GRAYLING       RAIN      45  41  87 N8        29.65R
HARBOR SPRINGS DRIZZLE   43  42  95 N6        29.69S
HOUGHTON LAKE  RAIN      44  41  89 N8        29.62S
MANISTEE       CLOUDY    41  36  81 N15G23    29.71R
OSCODA         CLOUDY    49  43  78 NE13      29.61R
PELLSTON       LGT RAIN  45  41  86 N12       29.70R
ROGERS CITY    LGT RAIN  43  42  95 N7        29.68R
TRAVERSE CITY  LGT RAIN  42  38  85 N13G20    29.69R
$$
MIZ007>008-015-041600-
EASTERN UPPER MICHIGAN

CITY           SKY/WX    TMP DP  RH WIND       PRES   REMARKS
KINROSS          N/A     43  43 100 NW13      29.71R
MACKINAC ISLAN CLOUDY    43  43 100 N12G18    29.70R
NEWBERRY       CLOUDY    41  35  78 N15G21    29.75R
S. S. MARIE    CLOUDY    48  40  73 N9        29.70S
MUNISING         N/A     39  33  79 N21       29.82R WCI  29
$$
MIZ004>006-011>014-085-041600-
CENTRAL UPPER MICHIGAN

CITY           SKY/WX    TMP DP  RH WIND       PRES   REMARKS
MANISTIQUE     CLOUDY    41  34  74 N17G29    29.77R
ESCANABA       CLOUDY    45  30  57 N16G29    29.80S
MENOMINEE      CLOUDY    43  34  70 N14G20    29.82S
SAWYER-GWINN   LGT SNOW  36  34  93 N17G30    29.82R WCI  25
$$
MIZ001>003-009>011-084-041600-
WESTERN UPPER MICHIGAN

CITY           SKY/WX    TMP DP  RH WIND       PRES   REMARKS
IRON MOUNTAIN  CLOUDY    41  33  73 N18G28    29.82R
HOUGHTON       CLOUDY    38  30  73 N17       29.90R WCI  28
COPPER HARBOR    N/A     38  33  82 NE17G26   29.90R WCI  28
IRONWOOD         N/A     41  32  70 NE13G21   29.91R
$$

ABBREVIATIONS USED IN REMARKS
   TC - TEMPERATURE IN CELSIUS
  WCI - WIND CHILL INDEX
   HX - HEAT INDEX
  VSB - VISIBILITY





USA.gov is the U.S. government's official web portal to all federal, state and local government web resources and services.